Theta_e
322 322 322 322 321 319 320 319 319 319 318 318 318 318 318 318 318 318 318 319 320 320 320 321 322 324 320 311 309 329 352 345 332 318 317 318 318 319 319 323 322 321 323 324 329 329 327
322 322 322 322 321 319 319 319 318 318 318 319 318 318 317 317 317 317 318 320 320 319 320 321 323 324 315 304 323 326 330 326 322 318 318 321 321 323 319 323 320 326 324 324 326 325 324
323 323 322 322 321 320 318 318 318 318 318 318 318 317 317 317 317 317 318 319 319 319 320 321 323 322 313 310 323 328 330 324 321 321 319 323 323 318 317 318 327 324 319 321 322 324 323
323 322 322 322 321 320 318 318 318 317 317 318 318 318 317 316 317 317 318 318 318 319 320 321 324 319 309 319 322 321 325 326 326 324 323 323 322 319 318 321 321 319 317 311 320 324 323
321 321 321 321 320 320 319 318 317 317 318 317 317 316 318 316 316 316 317 317 317 320 321 323 318 313 308 324 315 318 320 322 322 322 322 327 319 314 315 311 310 314 305 310 315 322 321
321 320 320 320 319 319 318 317 317 317 316 317 315 316 317 315 315 316 316 316 319 318 323 324 321 309 315 312 314 317 317 322 318 318 318 316 311 307 307 304 300 307 308 312 312 316 317
320 320 320 320 319 319 318 317 317 316 316 317 315 314 315 315 315 315 313 311 309 310 315 308 307 314 316 317 316 313 317 318 318 313 306 311 302 299 305 309 315 312 312 311 316 318 316
320 320 320 319 319 318 318 318 317 316 317 315 316 314 314 314 314 314 311 312 314 317 307 315 313 314 316 316 309 312 318 312 311 305 309 305 300 307 311 316 314 312 310 310 316 319 317
320 319 319 319 318 318 317 317 317 316 315 315 314 314 315 315 314 310 311 315 324 320 308 314 314 311 313 311 309 310 315 313 310 307 308 303 307 313 313 314 312 308 307 310 311 316 317
320 318 318 318 318 317 317 317 317 316 315 315 314 313 313 314 307 314 312 317 320 320 303 310 308 310 313 313 307 316 317 314 311 307 309 307 313 312 309 309 308 303 315 314 310 306 304
320 318 318 318 318 317 316 316 316 316 314 314 313 312 312 312 308 314 317 319 320 317 294 311 308 316 312 307 308 310 318 314 309 309 306 305 309 308 307 308 312 308 316 310 310 308 306
320 319 318 318 318 317 316 316 316 315 314 314 313 311 312 311 310 315 323 324 317 302 296 306 309 308 307 307 308 312 313 315 315 310 310 308 314 310 309 312 312 315 310 308 306 302 298
320 319 318 318 317 316 316 316 315 314 313 313 311 310 310 318 319 325 325 316 300 297 311 306 306 309 307 305 306 309 308 306 303 297 299 306 308 311 312 306 311 309 302 294 298 299 298
318 319 317 317 317 316 316 316 315 314 313 312 309 308 310 314 321 320 322 308 298 308 310 311 310 308 305 306 307 308 306 303 307 306 299 298 297 307 313 308 306 305 301 296 294 297 300
318 318 317 317 317 316 316 316 314 313 313 311 309 311 314 318 317 319 314 301 304 311 315 313 309 304 305 308 307 306 304 303 306 308 299 299 305 311 312 313 311 306 301 306 301 302 301
317 318 317 317 317 316 316 316 314 314 313 310 312 319 318 324 326 319 310 301 308 318 316 315 305 307 303 306 304 303 303 308 308 310 310 308 304 310 312 313 312 306 309 299 300 296 294
317 317 317 318 317 316 317 316 315 314 312 310 315 317 326 328 325 315 305 307 312 317 318 313 309 306 308 307 306 303 304 309 311 310 311 311 305 308 309 304 304 303 301 302 304 300 297
317 317 317 317 317 317 317 316 315 312 310 313 317 315 325 326 311 311 307 311 308 314 318 315 314 312 310 311 307 307 308 313 315 315 307 311 304 301 305 312 313 313 308 304 298 299 300
317 316 317 317 316 317 317 316 314 312 311 307 312 322 326 323 306 307 312 313 315 314 313 315 313 314 316 311 306 311 313 318 317 315 309 309 304 297 303 309 312 309 311 311 309 301 299
316 317 317 316 316 317 317 316 313 312 311 308 319 316 320 320 317 311 310 313 313 317 315 317 316 316 314 312 313 312 312 317 318 316 326 316 304 301 301 305 310 307 310 311 306 298 302
316 317 316 316 317 317 317 316 314 312 311 311 319 321 323 312 314 312 312 313 312 311 315 317 315 316 314 308 310 311 315 314 316 320 314 308 301 304 306 312 311 310 310 310 306 307 301
316 317 315 315 315 317 317 316 314 313 311 316 312 314 315 312 316 316 311 311 312 314 315 313 313 316 317 311 314 311 314 313 311 312 310 309 303 304 302 308 310 309 312 311 311 310 315
315 316 316 316 316 316 317 316 315 313 311 314 318 317 312 312 316 314 313 314 314 317 319 318 317 316 314 315 319 320 317 315 311 307 308 306 304 302 298 306 305 299 309 310 311 314 315
315 315 316 317 317 317 316 316 315 314 312 310 315 316 311 310 316 315 317 317 315 318 317 317 320 316 320 321 319 316 316 313 313 306 308 304 304 303 298 300 292 303 312 313 312 313 317
316 316 317 317 317 317 316 316 316 315 314 311 314 315 312 307 314 313 313 316 318 317 317 317 318 319 320 317 309 307 308 308 310 312 308 308 304 299 296 296 300 308 310 310 309 308 315
315 315 316 316 317 317 317 316 316 315 313 312 313 322 314 310 311 315 312 317 313 312 315 318 321 320 318 312 308 304 300 305 305 307 310 309 307 301 298 296 296 305 312 315 314 303 314
314 314 314 314 316 317 316 316 316 315 313 311 313 318 317 309 316 314 311 312 318 315 313 316 318 316 317 309 305 303 302 310 303 303 303 303 303 299 299 297 304 311 313 315 300 303 314
314 315 314 315 316 316 316 316 315 314 313 311 312 319 318 311 312 316 315 312 312 315 310 313 314 315 312 307 305 305 304 306 305 307 307 305 302 300 302 299 297 315 313 306 309 313 314
314 314 315 315 315 315 316 316 316 315 314 313 312 318 321 316 313 318 318 319 317 318 315 314 312 314 315 311 311 311 307 309 305 301 311 303 306 303 305 305 313 313 312 314 315 313 313
Wind_Speed
18 18 18 17 16 17 17 16 16 15 15 15 14 13 12 11 10 10 10 9 10 10 10 11 11 11 6 4 11 6 8 6 4 4 7 11 15 14 8 8 2 3 5 7 2 3 5
19 18 18 18 17 18 18 17 17 17 16 15 14 13 12 11 11 10 10 9 9 10 10 10 10 11 3 6 9 10 9 7 8 8 9 15 13 13 7 5 5 1 8 8 9 4 4
18 18 18 18 18 19 19 18 18 17 17 15 14 13 12 12 11 10 10 9 10 11 10 9 9 6 5 18 2 9 12 8 8 10 12 14 12 7 10 10 3 3 4 7 9 6 4
19 19 19 18 18 18 20 19 19 19 19 16 15 13 12 12 11 10 9 9 11 12 11 9 7 5 9 11 13 11 7 10 11 11 10 11 8 6 6 10 10 2 4 5 9 7 6
21 21 20 20 20 19 20 20 20 20 17 18 15 14 12 12 10 10 9 9 12 12 10 8 4 4 10 6 6 12 9 10 10 9 8 10 6 6 10 7 5 3 5 5 11 16 9
21 22 22 23 22 21 21 22 21 21 20 17 18 15 13 11 10 8 8 8 7 9 7 8 9 4 8 14 8 9 10 11 7 7 7 5 3 6 6 4 5 5 6 7 8 6 8
22 22 23 23 23 22 22 22 22 22 22 18 19 17 12 10 8 7 7 3 1 2 7 12 11 7 8 12 9 9 12 11 7 6 7 10 4 9 16 16 7 7 10 11 19 2 16
22 22 22 23 24 24 24 23 23 23 21 21 17 16 12 8 6 4 4 6 10 8 6 23 20 18 20 10 9 13 14 8 7 8 10 6 10 18 16 6 8 8 10 13 5 10 11
20 22 22 23 24 24 24 24 23 23 23 22 19 14 11 7 2 2 7 13 11 18 4 7 14 9 14 5 12 13 12 10 7 9 10 11 15 19 13 6 11 8 7 2 4 7 6
19 22 22 22 22 25 25 25 24 23 23 21 21 18 10 3 1 5 8 13 15 11 4 4 10 8 10 7 6 11 10 9 7 12 14 11 17 10 3 5 7 7 6 7 3 2 4
20 22 23 21 21 23 26 25 25 24 25 24 21 17 8 11 8 5 8 13 13 3 4 16 11 8 10 11 7 13 14 11 13 13 6 13 6 8 6 8 9 9 10 3 2 13 8
21 22 24 22 24 26 25 23 26 26 25 24 20 15 4 4 5 15 15 12 4 2 8 10 11 12 12 10 13 14 10 10 9 11 12 11 9 6 8 6 8 11 4 8 6 5 2
22 22 24 23 26 27 26 25 27 27 27 26 22 11 8 7 4 8 11 1 1 6 12 12 12 16 11 10 15 15 13 11 9 4 7 10 9 9 5 6 9 4 2 2 7 7 2
25 23 23 26 24 25 27 27 27 28 29 27 21 6 11 9 9 11 6 1 5 10 8 13 14 15 13 13 11 16 12 10 12 12 5 7 7 12 7 6 7 7 9 7 6 6 9
25 23 25 25 24 26 26 26 27 30 29 25 20 4 5 8 15 5 2 6 5 2 6 7 14 12 12 12 8 10 10 10 13 15 9 2 7 10 8 7 8 11 4 10 9 5 5
25 24 24 25 24 25 25 26 30 30 32 27 4 4 6 9 11 4 3 6 7 5 4 8 9 12 12 15 8 8 10 15 15 16 14 8 3 5 15 8 8 7 6 7 5 5 2
24 24 24 23 24 25 25 27 30 28 33 19 3 4 5 15 9 3 5 7 9 13 16 18 8 9 13 10 11 14 13 12 22 17 16 7 3 10 2 5 7 4 5 5 7 6 5
23 24 23 24 24 25 26 29 25 25 30 8 5 4 10 11 4 4 7 6 7 23 19 5 8 11 8 12 9 11 13 9 16 7 3 3 3 2 6 5 6 3 8 2 6 4 4
22 25 24 25 25 26 26 27 25 22 16 7 5 5 7 8 4 7 10 17 20 21 12 6 5 10 5 8 1 6 7 5 6 7 4 4 2 2 7 12 7 6 12 16 15 3 4
23 24 25 26 27 26 26 27 28 26 17 3 2 4 1 4 7 12 13 14 16 11 7 11 7 10 6 7 3 4 4 4 11 5 5 4 2 4 6 11 4 9 18 14 7 4 4
24 24 26 26 25 26 27 28 30 33 30 5 4 1 3 4 6 12 12 14 16 14 5 7 7 7 6 5 8 8 12 2 7 2 3 3 1 5 4 10 8 5 13 7 11 14 4
22 23 26 27 27 25 25 26 30 33 39 3 4 4 5 7 14 14 13 10 11 11 6 8 9 11 11 9 7 7 2 10 4 3 2 2 1 5 3 3 12 9 12 4 3 19 12
23 23 24 24 25 25 24 24 27 26 24 5 6 5 3 7 10 9 7 17 8 9 4 8 18 7 10 6 22 26 13 8 7 3 4 2 4 5 3 8 9 3 4 4 2 12 17
22 23 22 23 23 23 24 24 24 21 16 5 4 6 4 6 6 10 17 22 11 8 5 15 12 7 2 5 3 4 10 6 9 1 1 3 2 3 2 4 2 2 7 9 20 15 14
20 21 22 23 23 22 24 23 23 21 17 4 5 4 4 6 9 11 17 16 12 7 6 8 2 5 5 3 2 0 2 2 6 6 5 2 1 2 5 3 3 7 6 6 10 11 13
21 21 21 22 23 22 22 23 23 22 20 6 7 3 3 5 4 11 13 10 7 11 9 4 5 5 6 3 2 3 3 5 4 4 6 2 2 6 1 1 3 4 7 8 2 5 9
22 23 23 23 22 22 23 23 23 22 21 8 6 7 3 4 4 12 7 6 7 8 3 4 7 4 2 1 3 3 5 5 6 5 5 2 1 3 3 3 4 5 6 6 4 4 8
20 20 22 22 22 21 22 21 21 21 20 10 7 8 4 3 10 7 10 9 10 7 4 8 7 5 3 1 2 4 3 5 3 2 5 5 5 1 2 1 3 9 7 6 4 8 9
20 20 20 21 21 21 21 20 19 18 17 11 5 8 6 4 8 12 14 13 9 7 4 6 4 6 3 4 5 5 4 4 3 1 6 5 4 5 4 5 4 7 9 7 9 8 7
Wind_Direction
15 12 8 7 6 2 358 356 354 352 348 341 334 327 319 312 307 301 294 290 292 301 307 310 317 323 313 225 250 148 162 161 185 218 248 266 274 289 255 249 23 27 339 297 245 236 255
14 11 9 5 3 2 359 357 355 352 349 340 334 329 319 311 304 299 292 292 288 296 301 306 314 318 239 253 234 173 173 157 226 202 252 256 269 303 296 307 131 271 288 347 324 247 314
10 8 7 4 1 1 0 357 354 351 348 340 334 328 321 312 302 296 291 291 291 291 294 299 309 292 260 240 17 187 181 193 210 226 237 263 278 354 328 318 291 305 354 292 279 284 176
8 7 4 2 0 358 360 355 353 351 349 343 334 328 320 312 301 293 293 291 289 287 288 287 292 277 252 265 251 295 200 216 215 234 246 273 347 336 290 291 302 252 350 357 295 279 244
9 6 4 2 1 357 356 355 353 350 346 344 338 330 318 311 301 292 289 287 285 284 276 272 246 229 262 228 215 248 222 232 207 229 252 274 356 286 308 292 327 18 246 262 298 271 250
6 4 2 1 359 356 355 355 352 350 348 341 340 333 321 311 300 300 297 286 290 304 229 226 257 274 259 220 191 209 255 252 195 218 251 235 243 262 276 262 216 182 290 271 260 278 63
2 2 360 357 357 356 353 351 350 349 348 343 340 335 323 310 299 311 307 225 113 239 240 199 193 233 282 212 184 194 228 240 228 196 221 238 197 234 243 247 180 205 226 238 271 32 66
359 358 358 356 355 353 352 349 347 347 345 344 336 333 328 312 299 312 283 241 236 15 235 223 252 248 260 230 179 193 215 196 227 204 222 262 224 239 239 156 233 237 238 263 30 100 95
355 356 356 354 352 350 349 348 344 344 344 342 337 330 326 318 312 201 244 246 301 342 298 232 208 226 250 173 182 207 176 202 210 233 228 215 241 239 247 194 222 249 237 260 159 124 94
350 354 353 351 349 348 346 345 343 342 342 340 336 326 297 300 8 195 232 245 259 262 297 239 164 234 237 184 255 187 195 192 233 214 234 232 254 272 136 207 237 247 304 291 360 6 45
349 354 351 350 349 347 345 343 343 341 340 339 336 332 265 221 326 234 234 186 226 261 287 147 171 195 187 179 170 213 187 219 232 240 211 255 249 266 219 220 241 230 233 330 317 110 113
348 349 352 349 348 347 345 340 342 339 337 337 335 330 211 187 229 246 289 264 189 280 242 179 166 173 175 192 241 177 162 212 250 264 280 253 285 252 220 241 263 266 17 328 289 155 117
347 346 350 346 348 347 344 342 342 339 336 335 332 313 209 296 208 309 254 222 215 234 131 153 165 162 183 203 236 164 176 195 222 218 271 287 256 278 189 225 255 204 201 300 27 22 30
351 348 349 349 346 344 344 343 341 339 333 332 329 290 222 247 302 327 283 226 250 276 292 155 163 172 190 196 225 171 169 192 224 244 234 222 270 221 214 215 230 228 186 165 169 174 143
352 349 349 346 345 346 344 343 343 339 330 331 318 191 246 230 234 236 308 207 234 61 295 305 161 174 207 206 164 155 186 206 209 224 219 239 292 180 205 194 197 263 303 239 130 29 67
352 348 347 347 345 342 342 345 346 339 330 334 284 209 222 201 190 199 230 246 251 145 21 294 227 186 202 208 139 157 185 206 225 213 211 229 257 205 206 199 238 186 256 356 342 116 151
351 349 347 344 344 344 343 347 346 341 334 340 243 244 214 163 157 211 221 233 263 268 233 250 218 192 226 178 168 189 194 219 210 212 218 147 179 280 161 163 231 302 273 271 113 122 133
348 349 346 344 344 342 344 348 345 346 340 1 303 259 144 150 174 209 234 248 261 276 287 271 301 289 224 178 176 197 201 245 194 113 157 172 176 236 269 318 13 359 331 337 116 206 194
346 349 346 346 347 343 344 345 346 349 360 315 308 284 155 183 231 235 238 244 252 268 266 317 260 313 313 335 292 205 85 51 31 66 105 322 302 329 325 358 355 12 345 336 338 60 179
346 347 347 347 348 342 343 346 344 340 341 237 264 301 191 203 265 288 292 291 278 227 280 295 282 248 44 271 32 34 85 138 69 88 198 127 352 95 151 195 206 302 319 325 354 330 163
347 347 348 348 348 345 345 348 347 341 344 192 220 47 343 292 295 252 263 279 299 293 194 284 337 334 319 101 25 32 4 2 98 268 37 65 38 12 119 168 177 222 297 320 346 303 39
346 344 349 350 351 348 347 350 354 350 338 250 14 16 332 287 274 280 231 262 296 303 47 349 320 20 55 113 146 78 273 1 237 272 177 262 322 24 358 257 192 197 235 239 277 295 116
346 346 347 347 349 350 349 353 358 1 350 349 347 344 283 272 318 1 329 327 251 126 203 350 329 58 79 71 154 178 176 236 307 61 22 49 55 36 309 342 339 308 212 228 40 53 117
346 346 342 343 344 346 353 354 357 4 17 303 280 301 284 310 346 334 331 330 58 57 69 42 322 63 18 235 156 198 154 132 291 307 26 320 157 153 232 333 291 185 27 53 70 46 111
340 340 341 340 340 343 351 351 353 355 358 316 286 319 322 309 323 352 343 320 343 71 125 116 336 332 349 353 343 314 285 245 241 227 200 87 107 185 153 207 210 52 14 25 107 37 36
339 340 339 340 339 341 344 348 349 352 354 328 282 299 311 303 19 339 316 7 353 353 348 115 146 48 12 346 328 180 219 267 285 114 127 255 267 136 50 290 313 117 44 358 143 58 38
340 342 342 341 338 339 344 344 345 347 349 335 281 296 305 292 241 335 358 352 330 326 347 347 345 15 163 301 293 260 260 252 226 220 177 157 53 163 213 210 80 43 29 313 64 178 59
337 334 338 337 334 333 335 335 337 343 348 350 281 286 292 291 295 315 352 336 338 19 5 324 353 351 306 293 233 259 249 262 229 87 130 143 153 139 314 42 123 332 29 77 162 60 63
334 332 331 330 330 329 329 332 334 335 341 344 280 336 338 264 270 309 287 270 271 302 321 329 295 322 354 14 8 330 339 344 146 79 20 47 128 134 98 157 149 66 104 69 75 81 57